Tracking 29892 objects as of 21-Nov-2024
HD Live streaming from Space Station
objects crossing your sky now

STARLINK-1770

Track STARLINK-1770 now!
10-day predictions
STARLINK-1770 is classified as:


NORAD ID: 46383
Int'l Code: 2020-062BL
Perigee: 553.2 km
Apogee: 555.2 km
Inclination: 53.1 °
Period: 95.6 minutes
Semi major axis: 6925 km
RCS: Unknown
Launch date: September 3, 2020
Source: United States (US)
Launch site: AIR FORCE EASTERN TEST RANGE (AFETR)
Your satellite tracking list
Your tracking list is empty




NASA's NSSDC Master Catalog

Two Line Element Set (TLE):
1 46383U 20062BL  24325.49871185  .00013388  00000-0  91502-3 0  9996
2 46383  53.0554 345.3435 0001418  99.2067 260.9082 15.06438975232835
Source of the keplerian elements: AFSPC